[[{"header":{"parameterUnit":"m.s-1","parameterCategory":1,"la1":30.2991,"la2":30.254,"lo1":-89.0895,"lo2":-89.0444,"dy":0.0017,"dx":0.0017,"nx":28,"ny":28,"refTime":"2023-10-13T21:00:00:Z","depth":0,"parameterNumber":2,"parameterNumberName":"U-component_of_WINDS"},"data":[0,0,0,0,0,0,0,0,0,0,0,0,0,0,0,0,0,0,0,0,0,0,0,0,0,0,0,0,0,0,0,0,0,0,0,0,0,0,0,0,0,0,0,0,0,0,0,0,0,0,0,0,0,0,0,0,0,0,3.8197,3.8198,0,3.8271,3.8272,3.8273,3.8219,3.8216,3.8214,3.8212,3.829,3.8294,3.8298,0,0,0,0,0,0,0,0,0,0,0,0,0,3.801,3.8013,3.8197,3.8198,3.8199,3.8271,3.8272,3.8273,3.8219,3.8216,3.8213,3.8211,3.8288,3.8293,3.8299,0,0,0,0,0,0,0,0,0,0,0,0,0,3.8088,3.8015,3.8197,3.8181,3.818,3.8271,3.8272,3.8274,3.822,3.8216,3.8213,3.8209,3.8287,3.8293,3.8299,3.8411,0,0,3.8319,3.8322,0,0,0,0,0,0,0,0,3.8084,3.8095,3.8182,3.8182,3.8181,3.8232,3.8235,3.832,3.8221,3.8205,3.8212,3.8207,3.8274,3.8281,3.8303,3.8415,3.8418,3.832,3.8323,3.8326,3.8328,0,0,0,0,0,0,0,3.8079,3.8092,3.8226,3.8183,3.8183,3.817,3.8177,3.8251,3.8258,3.8206,3.8202,3.8211,3.8273,3.8297,3.8304,3.8419,3.8319,3.8325,3.8329,3.8332,3.8628,3.8632,0,0,0,0,0,0,3.8074,3.8088,3.8224,3.8229,3.8123,3.8176,3.8184,3.8219,3.8257,3.826,3.8214,3.8209,3.8287,3.8297,3.8307,3.8441,3.8326,3.8332,3.8336,3.8624,3.8629,3.8633,0,0,0,0,0,0,3.8071,3.8087,3.8221,3.8157,3.8173,3.8183,3.8223,3.8223,3.8247,3.8264,3.8265,3.8238,3.8285,3.8298,3.8386,3.8443,3.8335,3.8341,3.8619,3.8625,3.8631,3.871,0,0,0,0,0,0,3.8065,3.8086,3.8128,3.8159,3.8177,3.8299,3.8227,3.8227,3.8258,3.8251,3.8286,3.8288,3.8283,3.8376,3.8392,3.845,3.8346,3.8614,3.8622,3.8629,3.8702,3.8718,3.8731,0,0,0,0,0,3.8059,3.8148,3.8131,3.8147,3.823,3.8302,3.8312,3.8304,3.8263,3.8306,3.8317,3.8287,3.8434,3.8386,3.8403,3.8464,3.8611,3.862,3.8628,3.8696,3.8715,3.8731,0,0,0,0,0,0,3.8124,3.8151,3.8133,3.8234,3.8266,3.8293,3.8346,3.8324,3.8369,3.8361,3.8349,3.8358,3.845,3.8466,3.8411,3.8574,3.8516,3.8529,3.8561,3.8579,3.8594,3.8588,3.8352,0,0,0,0,0,3.8151,3.8206,3.8227,3.8314,3.8331,3.8336,3.8367,3.8358,3.8391,3.8405,3.8422,3.8456,3.8509,3.8545,3.8595,3.8704,3.8712,3.8754,3.8769,3.8781,3.8792,3.8852,3.8871,3.8663,3.8662,3.8662,0,0,3.8205,3.8227,3.8263,3.8328,3.8352,3.8411,3.8348,3.8413,3.8456,3.8414,3.8499,3.8513,3.855,3.8649,3.8694,3.8665,3.8851,3.8792,3.8801,3.8807,3.8863,3.8883,3.89,3.8669,3.8668,3.8667,0,0,3.8335,3.8357,3.8432,3.8457,3.8494,3.8497,3.8515,3.8545,3.8553,3.8637,3.8607,3.8659,3.8752,3.8779,3.8805,3.8946,3.8921,3.8963,3.9039,3.9097,3.9114,3.9128,3.9179,3.9198,3.8974,3.8975,3.8975,0,3.8399,3.8486,3.8474,3.8541,3.8571,3.8535,3.8612,3.8637,3.8689,3.8711,3.8677,3.8793,3.8815,3.8921,3.8955,3.8977,3.8998,3.8959,3.9112,3.9127,3.914,3.9189,3.9208,3.898,3.8979,3.8978,3.8978,0,3.8562,3.8623,3.868,3.873,3.8766,3.8838,3.8838,3.8876,3.8864,3.887,3.8957,3.8982,3.9038,3.9062,3.9051,3.9166,3.9147,3.9113,3.9054,3.9165,3.9211,3.9229,3.8987,3.8985,3.8983,3.8982,0,0,3.8736,3.8779,3.88,3.8823,3.8861,3.8908,3.8978,3.9032,3.9065,3.9102,3.9161,3.924,3.9209,3.9239,3.9231,3.9282,3.9393,3.9242,3.9242,3.927,3.9523,3.9549,3.957,3.9376,3.938,3.9382,3.952,0,3.8868,3.899,3.8982,3.9098,3.9154,3.9121,3.9182,3.9213,3.9221,3.927,3.9279,3.9336,3.929,3.9308,3.9357,3.9369,3.9444,3.9359,3.9432,3.9435,3.9425,3.9594,3.9621,3.975,3.9538,3.9541,3.9543,0,3.9039,3.9082,3.9203,3.9233,3.9256,3.9311,3.936,3.9407,3.9442,3.9444,3.9477,3.9461,3.9532,3.9471,3.957,3.9513,3.9542,3.9553,3.9558,3.9565,3.9496,3.9606,3.9791,3.981,3.9571,3.9568,3.9566,0,3.9155,3.9242,3.9326,3.9346,3.9383,3.9423,3.944,3.9471,3.9504,3.9546,3.9568,3.9618,3.9647,3.9686,3.9684,3.964,3.9785,3.9724,3.979,3.979,3.9823,3.9821,4.0015,3.9841,3.984,3.984,3.984,0,3.9304,3.9379,3.9378,3.943,3.9514,3.9504,3.9587,3.96,3.9628,3.9682,3.9657,3.9708,3.9701,3.9753,3.9752,3.9835,3.9848,3.9852,3.9851,3.9855,3.9855,3.9874,3.9866,3.9845,3.9844,3.9843,3.9842,0,3.9447,3.9449,3.9539,3.9566,3.9575,3.9636,3.966,3.9709,3.9715,3.9784,3.9799,3.9809,3.9869,3.987,3.9939,3.9938,4.0039,4.0028,4.0028,4.0026,4.0093,4.0087,4.0307,4.0336,4.0142,4.0144,4.0146,0,3.9542,3.96,3.9633,3.9668,3.9687,3.9743,3.9776,3.9769,3.9805,3.9848,3.9893,3.995,3.9996,4.0093,4.0107,4.0159,4.0149,4.0223,4.0157,4.0159,4.0151,4.0148,4.0154,4.0236,4.0238,4.024,4.0241,0,3.9712,3.971,3.9759,3.9809,3.9849,3.9888,3.9924,3.9954,3.9951,3.9993,4.0053,4.0089,4.0159,4.0216,4.0268,4.0286,4.0264,4.0262,4.028,4.0285,4.0283,4.0286,4.0064,4.0257,4.0255,4.0254,4.0253,4.0253,3.9834,3.9884,3.9916,3.9971,3.9997,4.0032,4.008,4.0091,4.0142,4.0198,4.0191,4.0259,4.0292,4.0358,4.0381,4.0434,4.0409,4.0435,4.0442,4.0449,4.0457,4.0274,4.0444,4.0443,4.0443,4.0442,4.0442,0,4.0003,4.0021,4.0073,4.0124,4.0168,4.0142,4.0181,4.022,4.028,4.0312,4.0358,4.0428,4.0484,4.0502,4.0556,4.0595,4.0587,4.061,4.0607,4.0612,4.0476,4.0455,4.0616,4.0616,4.0616,4.0616,4.0616,4.0616,4.0095,4.0178,4.0181,4.0277,4.0295,4.0361,4.0385,4.0417,4.0443,4.0523,4.0569,4.058,4.0607,4.0663,4.0714,4.0717,4.0739,4.0767,4.0767,4.0639,4.0622,4.0605,4.0585,4.0771,4.0772,4.0898,4.09,4.0901]},{"header":{"parameterUnit":"m.s-1","parameterCategory":1,"la1":30.2991,"la2":30.254,"lo1":-89.0895,"lo2":-89.0444,"dy":0.0017,"dx":0.0017,"nx":28,"ny":28,"refTime":"2023-10-13T21:00:00:Z","depth":0,"parameterNumber":3,"parameterNumberName":"V-component_of_WINDS"},"data":[0,0,0,0,0,0,0,0,0,0,0,0,0,0,0,0,0,0,0,0,0,0,0,0,0,0,0,0,0,0,0,0,0,0,0,0,0,0,0,0,0,0,0,0,0,0,0,0,0,0,0,0,0,0,0,0,0,0,-0.0428,-0.0428,0,-0.0419,-0.0419,-0.0418,-0.0462,-0.0464,-0.0465,-0.0466,-0.0454,-0.0452,-0.0451,0,0,0,0,0,0,0,0,0,0,0,0,0,-0.0482,-0.048,-0.0428,-0.0428,-0.0427,-0.0419,-0.0419,-0.0418,-0.0462,-0.0464,-0.0465,-0.0467,-0.0454,-0.0452,-0.0451,0,0,0,0,0,0,0,0,0,0,0,0,0,-0.0464,-0.048,-0.0428,-0.0448,-0.045,-0.0419,-0.0419,-0.0418,-0.0462,-0.0464,-0.0466,-0.0467,-0.0455,-0.0453,-0.045,-0.0398,0,0,-0.0443,-0.0442,0,0,0,0,0,0,0,0,-0.0465,-0.0462,-0.0445,-0.0447,-0.0449,-0.0444,-0.0433,-0.0411,-0.0461,-0.0457,-0.0466,-0.0468,-0.0449,-0.0447,-0.0441,-0.0397,-0.0397,-0.0443,-0.0442,-0.0441,-0.044,0,0,0,0,0,0,0,-0.0466,-0.0462,-0.0424,-0.0445,-0.0447,-0.0458,-0.0457,-0.0429,-0.0442,-0.0458,-0.0461,-0.0459,-0.045,-0.0443,-0.0441,-0.0397,-0.0443,-0.0441,-0.044,-0.0439,-0.0311,-0.0309,0,0,0,0,0,0,-0.0465,-0.0463,-0.0424,-0.0424,-0.0462,-0.0455,-0.0455,-0.0443,-0.0443,-0.0444,-0.0458,-0.0461,-0.0446,-0.0444,-0.0441,-0.038,-0.0441,-0.0439,-0.0437,-0.0313,-0.0311,-0.0309,0,0,0,0,0,0,-0.0466,-0.0461,-0.0425,-0.0444,-0.0441,-0.0452,-0.0439,-0.0442,-0.0435,-0.0443,-0.0445,-0.0448,-0.0447,-0.0444,-0.0409,-0.038,-0.0438,-0.0436,-0.0316,-0.0313,-0.031,-0.0258,0,0,0,0,0,0,-0.0467,-0.0461,-0.0441,-0.0444,-0.0439,-0.0393,-0.0437,-0.044,-0.0432,-0.0436,-0.0435,-0.0436,-0.0449,-0.0412,-0.0407,-0.0378,-0.0434,-0.0318,-0.0314,-0.0311,-0.0262,-0.0253,-0.0246,0,0,0,0,0,-0.0469,-0.0426,-0.044,-0.0435,-0.0415,-0.0391,-0.0389,-0.0405,-0.0429,-0.0409,-0.0415,-0.0436,-0.0385,-0.0408,-0.0402,-0.0373,-0.032,-0.0315,-0.0311,-0.0266,-0.0255,-0.0246,0,0,0,0,0,0,-0.0418,-0.0426,-0.0442,-0.0399,-0.0394,-0.0399,-0.0374,-0.0393,-0.038,-0.0385,-0.0405,-0.0405,-0.0366,-0.0366,-0.0392,-0.0323,-0.0357,-0.0351,-0.0324,-0.0314,-0.0306,-0.0306,-0.0432,0,0,0,0,0,-0.0402,-0.0382,-0.0391,-0.0352,-0.0349,-0.0362,-0.0352,-0.0365,-0.0361,-0.0359,-0.0361,-0.0356,-0.0339,-0.0326,-0.0311,-0.0263,-0.0263,-0.024,-0.0232,-0.0225,-0.0219,-0.0195,-0.0185,-0.0294,-0.0294,-0.0294,0,0,-0.0367,-0.037,-0.0356,-0.0341,-0.0339,-0.0319,-0.036,-0.0335,-0.032,-0.0355,-0.0322,-0.0324,-0.0319,-0.0278,-0.026,-0.0277,-0.019,-0.0219,-0.0214,-0.0212,-0.0189,-0.0179,-0.017,-0.0291,-0.0291,-0.0292,0,0,-0.0295,-0.0295,-0.0263,-0.0261,-0.0258,-0.0268,-0.026,-0.0263,-0.0266,-0.0234,-0.026,-0.0242,-0.0211,-0.0207,-0.0201,-0.013,-0.015,-0.0125,-0.0082,-0.0058,-0.0049,-0.0042,-0.0016,-0.0007,-0.0119,-0.0119,-0.0119,0,-0.0252,-0.0223,-0.0244,-0.0219,-0.0212,-0.0244,-0.0212,-0.0209,-0.02,-0.0195,-0.0214,-0.0178,-0.0177,-0.0136,-0.0119,-0.0113,-0.0105,-0.0124,-0.0049,-0.0042,-0.0035,-0.0011,-0.0001,-0.0116,-0.0116,-0.0117,-0.0117,0,-0.0171,-0.0151,-0.0125,-0.0118,-0.0109,-0.008,-0.0096,-0.0084,-0.0099,-0.0106,-0.0074,-0.0075,-0.006,-0.0052,-0.0065,-0.0013,-0.0023,-0.0046,-0.008,-0.0021,0.0001,0.001,-0.0112,-0.0113,-0.0114,-0.0114,0,0,-0.0063,-0.0071,-0.0061,-0.0059,-0.006,-0.0044,-0.0018,-0.0006,0.0005,0.0011,0.0033,0.0058,0.0037,0.0044,0.003,0.0051,0.0106,0.0026,0.0026,0.0041,0.0164,0.0181,0.0192,0.0093,0.0094,0.0096,0.0164,0,0.0007,0.0052,0.0032,0.0079,0.0097,0.0065,0.0088,0.009,0.0083,0.0098,0.0091,0.0109,0.0079,0.0083,0.0102,0.0096,0.0131,0.009,0.0114,0.0115,0.0114,0.0204,0.0223,0.0287,0.0172,0.0173,0.0175,0,0.0097,0.0104,0.0152,0.0146,0.0153,0.0174,0.0183,0.0197,0.0198,0.0192,0.0198,0.0179,0.0205,0.0169,0.0204,0.0177,0.0185,0.0183,0.0185,0.0188,0.0149,0.0209,0.0307,0.0317,0.0188,0.0187,0.0186,0,0.0171,0.0193,0.0224,0.0226,0.022,0.0235,0.0234,0.0233,0.0241,0.0248,0.0253,0.0265,0.0271,0.028,0.0264,0.024,0.0301,0.0265,0.0297,0.0298,0.0313,0.0313,0.0414,0.0317,0.0317,0.0316,0.0316,0,0.0252,0.0283,0.0256,0.0276,0.0309,0.0286,0.0319,0.0314,0.0313,0.0331,0.0304,0.0321,0.0299,0.0314,0.0302,0.0332,0.0336,0.0331,0.0328,0.0334,0.0335,0.034,0.0336,0.0319,0.0318,0.0318,0.0317,0,0.0341,0.0325,0.0356,0.0347,0.0345,0.037,0.0361,0.0379,0.0369,0.0392,0.0396,0.0381,0.0397,0.0381,0.0397,0.0389,0.043,0.042,0.0429,0.0427,0.046,0.0457,0.0569,0.0583,0.0476,0.0477,0.0478,0,0.0395,0.0418,0.0409,0.0419,0.0418,0.0433,0.0441,0.0418,0.0427,0.0429,0.0446,0.0459,0.0469,0.0497,0.0488,0.0499,0.049,0.0528,0.0492,0.0497,0.0491,0.049,0.0492,0.0536,0.0537,0.0538,0.0539,0,0.0493,0.0482,0.0493,0.0501,0.051,0.0515,0.0519,0.0528,0.0505,0.0516,0.0531,0.0539,0.0553,0.0567,0.0576,0.0574,0.0553,0.055,0.0558,0.0566,0.057,0.0568,0.045,0.0548,0.0547,0.0547,0.0546,0.0546,0.0566,0.0584,0.058,0.0593,0.0592,0.0595,0.0611,0.0601,0.0613,0.0623,0.0609,0.0628,0.0627,0.0635,0.0636,0.0651,0.0635,0.0647,0.065,0.0653,0.0658,0.0567,0.0652,0.0652,0.0652,0.0652,0.0651,0,0.0662,0.0657,0.0669,0.0673,0.0683,0.066,0.0661,0.0672,0.0688,0.0688,0.0697,0.0714,0.0727,0.0718,0.0728,0.0742,0.0732,0.0746,0.0745,0.0745,0.0672,0.0664,0.0753,0.0753,0.0753,0.0753,0.0753,0.0753,0.0713,0.0742,0.0731,0.0758,0.0754,0.0771,0.0774,0.0776,0.0776,0.0796,0.0805,0.0798,0.0795,0.0804,0.0815,0.0812,0.0817,0.0834,0.0828,0.076,0.075,0.0741,0.0733,0.0835,0.0835,0.0899,0.09,0.09]}]]